24/03/2024 00:45:00,1.098
24/03/2024 01:00:00,1.096
24/03/2024 01:15:00,1.096
24/03/2024 01:30:00,1.096
24/03/2024 01:45:00,1.094
24/03/2024 02:00:00,1.094
24/03/2024 02:15:00,1.094
24/03/2024 02:30:00,1.094
24/03/2024 02:45:00,1.093
24/03/2024 03:00:00,1.093
24/03/2024 03:15:00,1.092
24/03/2024 03:30:00,1.092
24/03/2024 03:45:00,1.092
24/03/2024 04:00:00,1.092
24/03/2024 04:15:00,1.09
24/03/2024 04:30:00,1.089
24/03/2024 04:45:00,1.089
24/03/2024 05:00:00,1.087
24/03/2024 05:15:00,1.085
24/03/2024 05:30:00,1.084
24/03/2024 05:45:00,1.083
24/03/2024 06:00:00,1.083
24/03/2024 06:15:00,1.082
24/03/2024 06:30:00,1.082
24/03/2024 06:45:00,1.081
24/03/2024 07:00:00,1.079
24/03/2024 07:15:00,1.079
24/03/2024 07:30:00,1.078
24/03/2024 07:45:00,1.077
24/03/2024 08:00:00,1.075
24/03/2024 08:15:00,1.074
24/03/2024 08:30:00,1.073
24/03/2024 08:45:00,1.073
24/03/2024 09:00:00,1.072
24/03/2024 09:15:00,1.071
24/03/2024 09:30:00,1.071
24/03/2024 09:45:00,1.071
24/03/2024 10:00:00,1.071
24/03/2024 10:15:00,1.069
24/03/2024 10:30:00,1.068
24/03/2024 10:45:00,1.067
24/03/2024 11:00:00,1.066
24/03/2024 11:15:00,1.066
24/03/2024 11:30:00,1.063
24/03/2024 11:45:00,1.063
24/03/2024 12:00:00,1.062
24/03/2024 12:15:00,1.062
24/03/2024 12:30:00,1.061
24/03/2024 12:45:00,1.06
24/03/2024 13:00:00,1.06
24/03/2024 13:15:00,1.059
24/03/2024 13:30:00,1.058
24/03/2024 13:45:00,1.057
24/03/2024 14:00:00,1.056
24/03/2024 14:15:00,1.055
24/03/2024 14:30:00,1.055
24/03/2024 14:45:00,1.052
24/03/2024 15:00:00,1.051
24/03/2024 15:15:00,1.05
24/03/2024 15:30:00,1.05
24/03/2024 15:45:00,1.049
24/03/2024 16:00:00,1.049
24/03/2024 16:15:00,1.048
24/03/2024 16:30:00,1.047
24/03/2024 16:45:00,1.046
24/03/2024 17:00:00,1.044
24/03/2024 17:15:00,1.042
24/03/2024 17:30:00,1.042
24/03/2024 17:45:00,1.041
24/03/2024 18:00:00,1.04
24/03/2024 18:15:00,1.038
24/03/2024 18:30:00,1.038
24/03/2024 18:45:00,1.038
24/03/2024 19:00:00,1.037
24/03/2024 19:15:00,1.036
24/03/2024 19:30:00,1.035
24/03/2024 19:45:00,1.034
24/03/2024 20:00:00,1.033
24/03/2024 20:15:00,1.03
24/03/2024 20:30:00,1.03
24/03/2024 20:45:00,1.029
24/03/2024 21:00:00,1.028
24/03/2024 21:15:00,1.027
24/03/2024 21:30:00,1.027
24/03/2024 21:45:00,1.026
24/03/2024 22:00:00,1.025
24/03/2024 22:15:00,1.024
24/03/2024 22:30:00,1.023
24/03/2024 22:45:00,1.02
24/03/2024 23:00:00,1.02
24/03/2024 23:15:00,1.019
24/03/2024 23:30:00,1.018
24/03/2024 23:45:00,1.017
25/03/2024 00:00:00,1.016
25/03/2024 00:15:00,1.016
25/03/2024 00:30:00,1.015
25/03/2024 00:45:00,1.014
25/03/2024 01:00:00,1.013
25/03/2024 01:15:00,1.013
25/03/2024 01:30:00,1.012
25/03/2024 01:45:00,1.011
25/03/2024 02:00:00,1.009
25/03/2024 02:15:00,1.009
25/03/2024 02:30:00,1.007
25/03/2024 02:45:00,1.007
25/03/2024 03:00:00,1.006
25/03/2024 03:15:00,1.005
25/03/2024 03:30:00,1.005
25/03/2024 03:45:00,1.003
25/03/2024 04:00:00,1.002
25/03/2024 04:15:00,0.998
25/03/2024 04:30:00,0.997
25/03/2024 04:45:00,0.997
25/03/2024 05:00:00,0.995
25/03/2024 05:15:00,0.994
25/03/2024 05:30:00,0.993
25/03/2024 05:45:00,0.992
25/03/2024 06:00:00,0.991
25/03/2024 06:15:00,0.988
25/03/2024 06:30:00,0.988
25/03/2024 06:45:00,0.987
25/03/2024 07:00:00,0.987
25/03/2024 07:15:00,0.988
25/03/2024 07:30:00,0.99
25/03/2024 07:45:00,0.99
25/03/2024 08:00:00,0.988
25/03/2024 08:15:00,0.988
25/03/2024 08:30:00,0.987
25/03/2024 08:45:00,0.987
25/03/2024 09:00:00,0.987
25/03/2024 09:15:00,0.986
25/03/2024 09:30:00,0.984
25/03/2024 09:45:00,0.984
25/03/2024 10:00:00,0.983
25/03/2024 10:15:00,0.982
25/03/2024 10:30:00,0.981
25/03/2024 10:45:00,0.98
25/03/2024 11:00:00,0.979
25/03/2024 11:15:00,0.979
25/03/2024 11:30:00,0.977
25/03/2024 11:45:00,0.977
25/03/2024 12:00:00,0.977
25/03/2024 12:15:00,0.977
25/03/2024 12:30:00,0.975
25/03/2024 12:45:00,0.975
25/03/2024 13:00:00,0.975
25/03/2024 13:15:00,0.975
25/03/2024 13:30:00,0.975
25/03/2024 13:45:00,0.975
25/03/2024 14:00:00,0.975
25/03/2024 14:15:00,0.975
25/03/2024 14:30:00,0.975
25/03/2024 14:45:00,0.975
25/03/2024 15:00:00,0.975
25/03/2024 15:15:00,0.975
25/03/2024 15:30:00,0.974
25/03/2024 15:45:00,0.974
25/03/2024 16:00:00,0.974
25/03/2024 16:15:00,0.974
25/03/2024 16:30:00,0.974
25/03/2024 16:45:00,0.974
25/03/2024 17:00:00,0.974
25/03/2024 17:15:00,0.974
25/03/2024 17:30:00,0.973
25/03/2024 17:45:00,0.973
25/03/2024 18:00:00,0.973
25/03/2024 18:15:00,0.973
25/03/2024 18:30:00,0.973
25/03/2024 18:45:00,0.973
25/03/2024 19:00:00,0.973
25/03/2024 19:15:00,0.972
25/03/2024 19:30:00,0.966
25/03/2024 19:45:00,0.966
25/03/2024 20:00:00,0.969
25/03/2024 20:15:00,0.97
25/03/2024 20:30:00,0.97
25/03/2024 20:45:00,0.97
25/03/2024 21:00:00,0.971
25/03/2024 21:15:00,0.973
25/03/2024 21:30:00,0.973
25/03/2024 21:45:00,0.973
25/03/2024 22:00:00,0.973
25/03/2024 22:15:00,0.973
25/03/2024 22:30:00,0.973
25/03/2024 22:45:00,0.971
25/03/2024 23:00:00,0.969
25/03/2024 23:15:00,0.966
25/03/2024 23:30:00,0.964
25/03/2024 23:45:00,0.963
26/03/2024 00:00:00,0.963
26/03/2024 00:15:00,0.966
26/03/2024 00:30:00,0.97
26/03/2024 00:45:00,0.97
26/03/2024 01:00:00,0.97
26/03/2024 01:15:00,0.97
26/03/2024 01:30:00,0.97
26/03/2024 01:45:00,0.97
26/03/2024 02:00:00,0.969
26/03/2024 02:15:00,0.968
26/03/2024 02:30:00,0.966
26/03/2024 02:45:00,0.965
26/03/2024 03:00:00,0.964
26/03/2024 03:15:00,0.964
26/03/2024 03:30:00,0.963
26/03/2024 03:45:00,0.963
26/03/2024 04:00:00,0.963
26/03/2024 04:15:00,0.963
26/03/2024 04:30:00,0.962
26/03/2024 04:45:00,0.962
26/03/2024 05:00:00,0.961
26/03/2024 05:15:00,0.961
26/03/2024 05:30:00,0.96
26/03/2024 05:45:00,0.959
26/03/2024 06:00:00,0.957
26/03/2024 06:15:00,0.955
26/03/2024 06:30:00,0.954
26/03/2024 06:45:00,0.954
26/03/2024 07:00:00,0.952
26/03/2024 07:15:00,0.951
26/03/2024 07:30:00,0.951
26/03/2024 07:45:00,0.95
26/03/2024 08:00:00,0.95
26/03/2024 08:15:00,0.948
26/03/2024 08:30:00,0.947
26/03/2024 08:45:00,0.946
26/03/2024 09:00:00,0.944
26/03/2024 09:15:00,0.943
26/03/2024 09:30:00,0.942
26/03/2024 09:45:00,0.942
26/03/2024 10:00:00,0.942
26/03/2024 10:15:00,0.941
26/03/2024 10:30:00,0.941
26/03/2024 10:45:00,0.94
26/03/2024 11:00:00,0.94
26/03/2024 11:15:00,0.939
26/03/2024 11:30:00,0.937
26/03/2024 11:45:00,0.936
26/03/2024 12:00:00,0.932
26/03/2024 12:15:00,0.93
26/03/2024 12:30:00,0.929
26/03/2024 12:45:00,0.928
26/03/2024 13:00:00,0.927
26/03/2024 13:15:00,0.925
26/03/2024 13:30:00,0.924
26/03/2024 13:45:00,0.922
26/03/2024 14:00:00,0.921
26/03/2024 14:15:00,0.918
26/03/2024 14:30:00,0.918
26/03/2024 14:45:00,0.918
26/03/2024 15:00:00,0.916
26/03/2024 15:15:00,0.915
26/03/2024 15:30:00,0.914
26/03/2024 15:45:00,0.914
26/03/2024 16:00:00,0.912
26/03/2024 16:15:00,0.911
26/03/2024 16:30:00,0.91
26/03/2024 16:45:00,0.909
26/03/2024 17:00:00,0.908
26/03/2024 17:15:00,0.908
26/03/2024 17:30:00,0.907
26/03/2024 17:45:00,0.906
26/03/2024 18:00:00,0.905
26/03/2024 18:15:00,0.905
26/03/2024 18:30:00,0.904
26/03/2024 18:45:00,0.901
26/03/2024 19:00:00,0.9
26/03/2024 19:15:00,0.9
26/03/2024 19:30:00,0.899
26/03/2024 19:45:00,0.899
26/03/2024 20:00:00,0.898
26/03/2024 20:15:00,0.898
26/03/2024 20:30:00,0.899
26/03/2024 20:45:00,0.899
26/03/2024 21:00:00,0.899
26/03/2024 21:15:00,0.899
26/03/2024 21:30:00,0.898
26/03/2024 21:45:00,0.898
26/03/2024 22:00:00,0.898
26/03/2024 22:15:00,0.897
26/03/2024 22:30:00,0.897
26/03/2024 22:45:00,0.896
26/03/2024 23:00:00,0.895
26/03/2024 23:15:00,0.892
26/03/2024 23:30:00,0.889
26/03/2024 23:45:00,0.886
27/03/2024 00:00:00,0.884
27/03/2024 00:15:00,0.882
27/03/2024 00:30:00,0.878
27/03/2024 00:45:00,0.876
27/03/2024 01:00:00,0.875
27/03/2024 01:15:00,0.875
27/03/2024 01:30:00,0.871
27/03/2024 01:45:00,0.868
27/03/2024 02:00:00,0.867
27/03/2024 02:15:00,0.866
27/03/2024 02:30:00,0.866
27/03/2024 02:45:00,0.864
27/03/2024 03:00:00,0.864
27/03/2024 03:15:00,0.864
27/03/2024 03:30:00,0.864
27/03/2024 03:45:00,0.866
27/03/2024 04:00:00,0.867
27/03/2024 04:15:00,0.866
27/03/2024 04:30:00,0.865
27/03/2024 04:45:00,0.864
27/03/2024 05:00:00,0.864
27/03/2024 05:15:00,0.864
27/03/2024 05:30:00,0.864
27/03/2024 05:45:00,0.864
27/03/2024 06:00:00,0.863
27/03/2024 06:15:00,0.863
27/03/2024 06:30:00,0.863
27/03/2024 06:45:00,0.862
27/03/2024 07:00:00,0.862
27/03/2024 07:15:00,0.861
27/03/2024 07:30:00,0.86
27/03/2024 07:45:00,0.859
27/03/2024 08:00:00,0.859
27/03/2024 08:15:00,0.859
27/03/2024 08:30:00,0.859
27/03/2024 08:45:00,0.857
27/03/2024 09:00:00,0.857
27/03/2024 09:15:00,0.857
27/03/2024 09:30:00,0.856
27/03/2024 09:45:00,0.856
27/03/2024 10:00:00,0.856
27/03/2024 10:15:00,0.856
27/03/2024 10:30:00,0.855
27/03/2024 10:45:00,0.855
27/03/2024 11:00:00,0.854
27/03/2024 11:15:00,0.854
27/03/2024 11:30:00,0.854
27/03/2024 11:45:00,0.854
27/03/2024 12:00:00,0.854
27/03/2024 12:15:00,0.854
27/03/2024 12:30:00,0.854
27/03/2024 12:45:00,0.853
27/03/2024 13:00:00,0.853
27/03/2024 13:15:00,0.853
27/03/2024 13:30:00,0.852
27/03/2024 13:45:00,0.852
27/03/2024 14:00:00,0.852
27/03/2024 14:15:00,0.851
27/03/2024 14:30:00,0.85
27/03/2024 14:45:00,0.85
27/03/2024 15:00:00,0.85
27/03/2024 15:15:00,0.85
27/03/2024 15:30:00,0.85
27/03/2024 15:45:00,0.85
27/03/2024 16:00:00,0.85
27/03/2024 16:15:00,0.85
27/03/2024 16:30:00,0.851
27/03/2024 16:45:00,0.852
27/03/2024 17:00:00,0.853
27/03/2024 17:15:00,0.855
27/03/2024 17:30:00,0.857
27/03/2024 17:45:00,0.859
27/03/2024 18:00:00,0.86
27/03/2024 18:15:00,0.862
27/03/2024 18:30:00,0.863
27/03/2024 18:45:00,0.863
27/03/2024 19:00:00,0.864
27/03/2024 19:15:00,0.866
27/03/2024 19:30:00,0.868
27/03/2024 19:45:00,0.874
27/03/2024 20:00:00,0.877
27/03/2024 20:15:00,0.881
27/03/2024 20:30:00,0.882
27/03/2024 20:45:00,0.882
27/03/2024 21:00:00,0.883
27/03/2024 21:15:00,0.884
27/03/2024 21:30:00,0.885
27/03/2024 21:45:00,0.885
27/03/2024 22:00:00,0.885
27/03/2024 22:15:00,0.885
27/03/2024 22:30:00,0.882
27/03/2024 22:45:00,0.878
27/03/2024 23:00:00,0.875
27/03/2024 23:15:00,0.872
27/03/2024 23:30:00,0.868
27/03/2024 23:45:00,0.868
28/03/2024 00:00:00,0.87
28/03/2024 00:15:00,0.874
28/03/2024 00:30:00,0.875
28/03/2024 00:45:00,0.875
28/03/2024 01:00:00,0.874
28/03/2024 01:15:00,0.873
28/03/2024 01:30:00,0.873
28/03/2024 01:45:00,0.872
28/03/2024 02:00:00,0.871
28/03/2024 02:15:00,0.87
28/03/2024 02:30:00,0.868
28/03/2024 02:45:00,0.868
28/03/2024 03:00:00,0.867
28/03/2024 03:15:00,0.867
28/03/2024 03:30:00,0.867
28/03/2024 03:45:00,0.866
28/03/2024 04:00:00,0.866
28/03/2024 04:15:00,0.865
28/03/2024 04:30:00,0.864
28/03/2024 04:45:00,0.864
28/03/2024 05:00:00,0.864
28/03/2024 05:15:00,0.863
28/03/2024 05:30:00,0.863
28/03/2024 05:45:00,0.862
28/03/2024 06:00:00,0.862
28/03/2024 06:15:00,0.86
28/03/2024 06:30:00,0.859
28/03/2024 06:45:00,0.859
28/03/2024 07:00:00,0.857
28/03/2024 07:15:00,0.856
28/03/2024 07:30:00,0.854
28/03/2024 07:45:00,0.854
28/03/2024 08:00:00,0.853
28/03/2024 08:15:00,0.853
28/03/2024 08:30:00,0.853
28/03/2024 08:45:00,0.852
28/03/2024 09:00:00,0.851
28/03/2024 09:15:00,0.851
28/03/2024 09:30:00,0.85
28/03/2024 09:45:00,0.849
28/03/2024 10:00:00,0.848
28/03/2024 10:15:00,0.848
28/03/2024 10:30:00,0.845
28/03/2024 10:45:00,0.844
28/03/2024 11:00:00,0.844
28/03/2024 11:15:00,0.844
28/03/2024 11:30:00,0.844
28/03/2024 11:45:00,0.844
28/03/2024 12:00:00,0.844
28/03/2024 12:15:00,0.844
28/03/2024 12:30:00,0.843
28/03/2024 12:45:00,0.842
28/03/2024 13:00:00,0.842
28/03/2024 13:15:00,0.841
28/03/2024 13:30:00,0.841
28/03/2024 13:45:00,0.841
28/03/2024 14:00:00,0.842
28/03/2024 14:15:00,0.841
28/03/2024 14:30:00,0.841
28/03/2024 14:45:00,0.841
28/03/2024 15:00:00,0.841
28/03/2024 15:15:00,0.841
28/03/2024 15:30:00,0.842
28/03/2024 15:45:00,0.842
28/03/2024 16:00:00,0.844
28/03/2024 16:15:00,0.846
28/03/2024 16:30:00,0.849
28/03/2024 16:45:00,0.85
28/03/2024 17:00:00,0.852
28/03/2024 17:15:00,0.853
28/03/2024 17:30:00,0.859
28/03/2024 17:45:00,0.864
28/03/2024 18:00:00,0.872
28/03/2024 18:15:00,0.875
28/03/2024 18:30:00,0.879
28/03/2024 18:45:00,0.892
28/03/2024 19:00:00,0.906
28/03/2024 19:15:00,0.909
28/03/2024 19:30:00,0.91
28/03/2024 19:45:00,0.909
28/03/2024 20:00:00,0.908
28/03/2024 20:15:00,0.905
28/03/2024 20:30:00,0.901
28/03/2024 20:45:00,0.899
28/03/2024 21:00:00,0.897
28/03/2024 21:15:00,0.896
28/03/2024 21:30:00,0.893
28/03/2024 21:45:00,0.89
28/03/2024 22:00:00,0.887
28/03/2024 22:15:00,0.886
28/03/2024 22:30:00,0.885
